Location: Csohesd
(46.2500°N, 22.6167°E)
Time: 06:11:07
(UTC+00:00)

CSL-04 Rocket - Pass Details

Date: 21 October 2021
Orbit: 805 x 860 km, 98.9° (Epoch: 04 December)

Event Time Altitude Azimuth Distance (km) Brightness Sun altitude
Exits shadow 18:05:18 44° 182° (S) 1,175 4.3 -27.0°
Maximum altitude 18:07:07 75° 256° (WSW) 893 3.8 -27.3°
Drops below altitude 10° 18:12:43 10° 342° (NNW) 2,509 6.5 -28.3°
Sets 18:15:07 0° 345° (NNW) 3,450 7.3 -28.7°
